星链-30314 (STARLINK-30314 )

导读 | 豆包AI

STARLINK-30314是美国太空探索技术公司(SpaceX)于2023年8月22日发射的星链低轨互联网通信卫星,是星链星座组网建设的组成部分。该卫星依托星链系统部署,为全球范围内提供高速宽带互联网接入服务,尤其覆盖偏远地区,推动全球网络互联覆盖,也是美国商业航天大规模星座部署的典型单元。

Basic Information
目录编号:
57674
目录名称:
STARLINK-30314
国际标识:
2023-124M
轨道中心:
EARTH
卫星名称:
星链-30314
卫星全名:
星链-30314 (STARLINK-30314 )
卫星状态:
已陨落 最后检测时间 2025-03-02
发射日期:
2023-08-22 UTC
国别 :
美国 (US)
星等 :
--
Orbit Information
数据来源 国际轨道数据
星历时间: 2025-03-02T18:37:44+0800
轨道信息已过期424天
半长轴: 6542.577km
偏心率: 0.0003294
轨道倾角: 53.130°
近地点辐角 347.469°
升交点赤经 100.234°
平近点角 148.279°
近地点: 162.286km
远地点: 166.598km
周期: 87.777分钟
每日圈数: 16.405124
Detailed Information
固有亮度:
5
最大亮度:
0.3
卫星平台:
Starlink v2.0 mini
覆盖范围:
全球
运营商:
太空探索技术公司
运营商所在国:
美国
制造商(研发单位):
太空探索技术公司
制造商所在国:
美国
使用方式:
暂无
Satellite Introduction
星链(Starlink)计划是由太空探索技术公司(SpaceX)提出的一个巨型低轨卫星互联网星座项目,计划在2019年至2024年间在太空搭建由约1.2万颗卫星组成的“星链”网络,其中1584颗将部署在地球上空550千米处的近地轨道,并从2020年开始工作。该卫星仍在工作。